F1ZUI-13 Weather Reports


time (UTC)temp
C
wind
direction
speed
KPH
gust
KPH
rain 1hr
cm
rain 24hr
cm
rain mn
cm
humidity
%
barometer
mb
20260510093207 23 225 12.9 0.0 0.00 0.00 0.00 1012.7
20260510092153 21 270 11.3 0.0 0.00 0.00 0.00 1012.8
20260510091139 22 225 20.9 0.0 0.00 0.00 0.00 1012.7
20260510090126 25 225 8.0 0.0 0.00 0.00 0.00 1012.6
20260510085112 23 180 38.6 0.0 0.00 0.00 0.00 1012.5
20260510084058 21 225 24.1 0.0 0.00 0.00 0.00 1012.6
20260510083045 18 225 19.3 0.0 0.00 0.00 0.00 1012.4
20260510082031 18 225 19.3 0.0 0.00 0.00 0.00 1012.3
20260510081018 18 225 19.3 0.0 0.00 0.00 0.00 1012.2
20260510080004 22 225 32.2 0.0 0.00 0.00 0.00 1012.1
20260510074950 21 225 27.4 0.0 0.00 0.00 0.00 1011.9
20260510073937 21 225 20.9 0.0 0.00 0.00 0.00 1011.9
20260510072923 20 225 24.1 0.0 0.00 0.00 0.00 1011.9
20260510071909 20 225 24.1 0.0 0.00 0.00 0.00 1011.7
20260510070856 19 180 19.3 0.0 0.00 0.00 0.00 1011.6
20260510065842 18 225 19.3 0.0 0.00 0.00 0.00 1011.5
20260510064829 17 225 27.4 0.0 0.00 0.00 0.00 1011.5
20260510063815 17 225 16.1 0.0 0.00 0.00 0.00 1011.5
20260510062801 16 225 33.8 0.0 0.00 0.00 0.00 1011.4
20260510061748 15 225 37.0 0.0 0.00 0.00 0.00 1011.2
20260510060734 15 180 20.9 0.0 0.00 0.00 0.00 1011.3
20260510055720 13 225 19.3 0.0 0.00 0.00 0.00 1011.2
20260510054707 13 225 19.3 0.0 0.00 0.00 0.00 1011.2
20260510053653 11 225 24.1 0.0 0.00 0.00 0.00 1011.1
20260510052639 11 225 25.7 0.0 0.00 0.00 0.00 1010.9
20260510051626 11 225 35.4 0.0 0.00 0.00 0.00 1010.8
20260510050612 11 225 22.5 0.0 0.00 0.00 0.00 1011.1
20260510045559 11 225 27.4 0.0 0.00 0.00 0.00 1011.1
20260510044520 11 225 32.2 0.0 0.00 0.00 0.00 1011.1
20260510043506 12 225 30.6 0.0 0.00 0.00 0.00 1011.1
20260510042453 12 225 33.8 0.0 0.00 0.00 0.00 1011.2
20260510041439 12 225 22.5 0.0 0.00 0.00 0.00 1011.4
20260510040426 11 225 35.4 0.0 0.00 0.00 0.00 1010.9
20260510033726 12 225 25.7 0.0 0.00 0.00 0.00 1010.9
20260510032712 12 270 27.4 0.0 0.00 0.00 0.00 1011.1
20260510031659 13 225 29.0 0.0 0.00 0.00 0.00 1011.2
20260510030645 13 180 24.1 0.0 0.00 0.00 0.00 1011.3
20260510025631 13 225 37.0 0.0 0.00 0.00 0.00 1011.3
20260510024618 12 225 38.6 0.0 0.00 0.00 0.00 1011.2
20260510023604 12 180 51.5 0.0 0.00 0.00 0.00 1011.2
20260510022550 12 225 32.2 0.0 0.00 0.00 0.00 1011.3
20260510021537 12 225 24.1 0.0 0.00 0.00 0.00 1011.4
20260510020523 12 225 35.4 0.0 0.00 0.00 0.00 1011.2
20260510015510 12 225 35.4 0.0 0.00 0.00 0.00 1011.2
20260510014456 12 225 38.6 0.0 0.00 0.00 0.00 1011.2
20260510013442 12 225 29.0 0.0 0.00 0.00 0.00 1011.2
20260510012429 12 225 45.1 0.0 0.00 0.00 0.00 1011.1
20260510011415 12 225 32.2 0.0 0.00 0.00 0.00 1011.3
20260510010401 12 180 29.0 0.0 0.00 0.00 0.00 1011.4
20260510005348 12 225 16.1 0.0 0.00 0.00 0.00 1011.6
20260510004334 12 225 24.1 0.0 0.00 0.00 0.00 1011.7
20260510003320 12 225 35.4 0.0 0.00 0.00 0.00 1011.6
20260510002307 12 225 33.8 0.0 0.00 0.00 0.00 1011.6
20260510001253 12 225 27.4 0.0 0.00 0.00 0.00 1011.5
20260510000241 12 225 30.6 0.0 0.00 0.00 0.00 1011.5
20260509235226 12 225 25.7 0.0 0.00 0.00 0.00 1011.5
20260509234212 13 225 35.4 0.0 0.00 0.00 0.00 1011.3
20260509233159 12 225 33.8 0.0 0.00 0.00 0.00 1011.3
20260509232145 12 180 29.0 0.0 0.00 0.00 0.00 1011.5
20260509231132 12 225 22.5 0.0 0.00 0.00 0.00 1011.9
20260509230118 12 225 29.0 0.0 0.00 0.00 0.00 1011.9
20260509225104 12 225 17.7 0.0 0.00 0.00 0.00 1012.1
20260509224051 13 180 25.7 0.0 0.00 0.00 0.00 1012.1
20260509222925 13 180 20.9 0.0 0.00 0.00 0.00 1012.2
20260509221911 13 180 32.2 0.0 0.00 0.00 0.00 1012.1
20260509220858 13 180 32.2 0.0 0.00 0.00 0.00 1012.2
20260509215844 13 180 32.2 0.0 0.00 0.00 0.00 1012.1
20260509214831 13 180 30.6 0.0 0.00 0.00 0.00 1012.2
20260509213817 13 180 40.2 0.0 0.00 0.00 0.00 1012.1
20260509212803 14 180 33.8 0.0 0.00 0.00 0.00 1012.5
20260509211750 14 180 29.0 0.0 0.00 0.00 0.00 1012.6
20260509210736 14 180 29.0 0.0 0.00 0.00 0.00 1012.6
20260509205722 14 225 32.2 0.0 0.00 0.00 0.00 1012.7
20260509204709 14 180 27.4 0.0 0.00 0.00 0.00 1012.9
20260509203655 14 180 25.7 0.0 0.00 0.00 0.00 1012.8
20260509202641 14 180 19.3 0.0 0.00 0.00 0.00 1012.8
20260509201628 14 225 19.3 0.0 0.00 0.00 0.00 1012.7
20260509200614 15 180 19.3 0.0 0.00 0.00 0.00 1012.6
20260509195601 15 180 16.1 0.0 0.00 0.00 0.00 1012.5
20260509194547 15 225 16.1 0.0 0.00 0.00 0.00 1012.5
20260509193533 15 225 22.5 0.0 0.00 0.00 0.00 1012.2
20260509192520 15 225 14.5 0.0 0.00 0.00 0.00 1012.3
20260509191506 15 225 11.3 0.0 0.00 0.00 0.00 1012.4
20260509190452 15 225 6.4 0.0 0.00 0.00 0.00 1012.4
20260509185439 16 0.0 0.0 0.00 0.00 0.00 1012.4
20260509184425 16 315 3.2 0.0 0.00 0.00 0.00 1012.2
20260509183412 16 270 4.8 0.0 0.00 0.00 0.00 1012.1
20260509182358 16 0.0 0.0 0.00 0.00 0.00 1011.9
20260509181344 16 90 3.2 0.0 0.00 0.00 0.00 1011.7
20260509180331 16 0.0 0.0 0.00 0.00 0.00 1011.8
20260509175317 16 45 12.9 0.0 0.00 0.00 0.00 1011.6
20260509174303 16 0.0 0.0 0.00 0.00 0.00 1011.7
20260509173250 17 45 11.3 0.0 0.00 0.00 0.00 1011.5
20260509172236 17 315 8.0 0.0 0.00 0.00 0.00 1011.3
20260509171223 17 270 3.2 0.0 0.00 0.00 0.00 1011.2
20260509170209 17 0.0 0.0 0.00 0.00 0.00 1011.2
20260509165155 16 45 8.0 0.0 0.00 0.00 0.00 1011.3
20260509164142 16 45 16.1 0.0 0.00 0.00 0.00 1011.3
20260509163128 16 45 6.4 0.0 0.00 0.00 0.00 1011.6
20260509162114 16 0 8.0 0.0 0.00 0.00 0.00 1011.5
20260509161101 16 45 14.5 0.0 0.00 0.00 0.00 1011.4
20260509160047 15 45 25.7 0.0 0.00 0.00 0.00 1011.2
20260509155034 17 0 6.4 0.0 0.00 0.00 0.00 1011.4
20260509154020 17 0 14.5 0.0 0.00 0.00 0.00 1011.2
20260509153006 19 45 6.4 0.0 0.00 0.00 0.00 1011.3
20260509151953 19 0 11.3 0.0 0.00 0.00 0.00 1011.4
20260509150939 20 0 4.8 0.0 0.00 0.00 0.00 1011.5
20260509145925 21 0 9.7 0.0 0.00 0.00 0.00 1011.5
20260509144912 25 0.0 0.0 0.00 0.00 0.00 1011.8
20260509143858 26 0.0 0.0 0.00 0.00 0.00 1011.9
20260509142844 27 0.0 0.0 0.00 0.00 0.00 1011.9
20260509141831 26 270 4.8 0.0 0.00 0.00 0.00 1011.9
20260509140817 27 0.0 0.0 0.00 0.00 0.00 1012.0
20260509135803 26 180 9.7 0.0 0.00 0.00 0.00 1012.0
20260509134750 25 0.0 0.0 0.00 0.00 0.00 1012.0
20260509133736 25 0.0 0.0 0.00 0.00 0.00 1012.1
20260509132723 26 225 6.4 0.0 0.00 0.00 0.00 1012.0
20260509131709 26 0.0 0.0 0.00 0.00 0.00 1012.1
20260509130655 26 225 4.8 0.0 0.00 0.00 0.00 1012.1
20260509125642 25 180 14.5 0.0 0.00 0.00 0.00 1012.0
20260509124628 25 180 16.1 0.0 0.00 0.00 0.00 1012.1
20260509123615 25 180 12.9 0.0 0.00 0.00 0.00 1012.2
20260509122601 24 180 8.0 0.0 0.00 0.00 0.00 1012.3
20260509121547 23 225 12.9 0.0 0.00 0.00 0.00 1012.5
20260509120534 23 225 9.7 0.0 0.00 0.00 0.00 1012.8
20260509115520 22 225 12.9 0.0 0.00 0.00 0.00 1012.8
20260509114506 24 0.0 0.0 0.00 0.00 0.00 1013.0
20260509113453 24 225 11.3 0.0 0.00 0.00 0.00 1012.9
20260509112439 25 270 3.2 0.0 0.00 0.00 0.00 1012.9
20260509111425 24 225 3.2 0.0 0.00 0.00 0.00 1013.0
20260509110412 24 225 8.0 0.0 0.00 0.00 0.00 1013.0
20260509105358 23 225 3.2 0.0 0.00 0.00 0.00 1013.0
20260509104345 24 0.0 0.0 0.00 0.00 0.00 1013.0
20260509103331 23 135 4.8 0.0 0.00 0.00 0.00 1012.9
20260509102317 22 45 3.2 0.0 0.00 0.00 0.00 1012.8
20260509101304 23 135 3.2 0.0 0.00 0.00 0.00 1012.7
20260509100250 23 45 8.0 0.0 0.00 0.00 0.00 1012.6
20260509095236 24 135 6.4 0.0 0.00 0.00 0.00 1012.5
20260509094223 24 180 14.5 0.0 0.00 0.00 0.00 1012.5